{"data":{"norad_id":56457,"epoch":"2026-05-25T04:24:30.808224Z","epoch_age_seconds":49321,"freshness":"FRESH","line1":"1 56457U 23064K   26145.18368991 -.00001077  00000+0 -82497-4 0  9995","line2":"2 56457  69.9989 311.6038 0002448 270.7464  89.3414 14.98322442166707","mean_motion":14.98322442,"eccentricity":0.0002448,"inclination_deg":69.9989,"raan_deg":311.6038,"arg_perigee_deg":270.7464,"mean_anomaly_deg":89.3414,"bstar":-8.2497e-5,"rev_number":16670,"period_min":96.107483919005,"perigee_km":570.37785059289,"apogee_km":573.78067647552,"semimajor_km":6950.2162635342,"source":"CELESTRAK","updated_at":"2026-05-25T13:38:18.067850Z"}}